Location: Lawrence Hall of Science
(37.8785°N, 122.2415°W)
Time: 08:21:41
(UTC-08:00)

Cosmos 1461 - Visible Passes

Search period start: 23 February 2017 00:00
Search period end: 05 March 2017 00:00
Orbit: 528 x 646 km, 65.0° (Epoch: 22 February)

Date Brightness Start Highest point End Pass type
(mag) Time Alt. Az. Time Alt. Az. Time Alt. Az.
23 Feb 2.9 18:47:22 10° NNW 18:51:24 79° WSW 18:55:32 10° SSE visible
24 Feb 4.2 18:54:33 10° NW 18:58:22 42° WSW 19:02:17 10° S visible
25 Feb 5.4 19:02:02 10° WNW 19:05:17 23° WSW 19:08:35 10° SSW visible
26 Feb 6.1 19:10:11 10° W 19:12:07 13° WSW 19:14:05 10° SW visible
